Hourly Data Report for September 01, 2020

BRIER ISLAND
NOVA SCOTIA
Current Station Operator: ECCC - MSC

44°17'09.000" N
66°20'48.000" W
15.80 m
8200604
71988
WVU

Download Data

Hourly Data (September 2020)
Hourly Data Report for September 1, 2020
TIME Temp Definition
°C
Dew Point Definition
°C
Rel Hum Definition
%
Wind Dir Definition
10's deg

Wind Spd Definition
km/h
Visibility Definition
km
Stn Press Definition
kPa
Hmdx Definition


Wind Chill Definition


Weather Definition


00:00 12.9 12.1 95 23 13   102.07     LegendNANA
01:00 12.7 12.3 97 23 13   102.10     LegendNANA
02:00 12.7 12.6 100 23 11   102.14     LegendNANA
03:00 12.7 12.5 99 24 8   102.12     LegendNANA
04:00 12.9 12.6 98 21 6   102.15     LegendNANA
05:00 13.0 12.8 99 22 6   102.21     LegendNANA
06:00 12.9 12.8 99 22 7   102.31     LegendNANA
07:00 14.7 13.7 94 0 1   102.37     LegendNANA
08:00 15.5 13.3 87   0   102.37     LegendNANA
09:00 16.9 13.4 80 6 2   102.37     LegendNANA
10:00 18.0 13.9 77 14 8   102.37     LegendNANA
11:00 18.2 13.3 73 15 12   102.34     LegendNANA
12:00 18.7 12.1 65 15 10   102.34     LegendNANA
13:00 18.7 11.6 63 23 4   102.31     LegendNANA
14:00 17.5 11.8 69 24 14   102.27     LegendNANA
15:00 17.4 11.2 67 23 13   102.26     LegendNANA
16:00 16.8 11.4 70 23 12   102.26     LegendNANA
17:00 17.1 12.1 72 23 10   102.25     LegendNANA
18:00 15.2 11.0 76 16 10   102.26     LegendNANA
19:00 13.9 10.8 82 17 10   102.27     LegendNANA
20:00 13.2 9.5 78 17 10   102.32     LegendNANA
21:00 12.6 10.4 87 16 11   102.34     LegendNANA
22:00 12.4 9.4 82 16 11   102.30     LegendNANA
23:00 11.9 10.8 93 15 7   102.31     LegendNANA

Notes on Data Quality.

Legend

  • E = Estimated
  • M = Missing
  • NA = Not Available*
  • [empty] = Indicates an unobserved value
Date modified: